Stündliche Wetter Jumièges

Heute, 3 März, Mittwoch

Zeit Temperatur Niederschläge Wind Luftdruck Luftfeuchtigkeit
00:00 +9°C° 0 mm 1 m/S 764 mmHg 83%
01:00 +9°C° 0 mm 1 m/S 764 mmHg 84%
02:00 +7°C° 0 mm 2 m/S 763 mmHg 84%
03:00 +7°C° 0 mm 2 m/S 763 mmHg 84%
04:00 +7°C° 0 mm 2 m/S 763 mmHg 86%
05:00 +7°C° 0 mm 2 m/S 764 mmHg 87%
06:00 +7°C° 0 mm 2 m/S 764 mmHg 89%
07:00 +8°C° 0 mm 2 m/S 764 mmHg 86%
08:00 +9°C° 0 mm 2 m/S 764 mmHg 84%
09:00 +10°C° 0 mm 2 m/S 764 mmHg 81%
10:00 +12°C° 0.4 mm 2 m/S 764 mmHg 83%
11:00 +11°C° 0.4 mm 3 m/S 764 mmHg 85%
12:00 +11°C° 0.4 mm 3 m/S 764 mmHg 87%
13:00 +12°C° 0.3 mm 3 m/S 763 mmHg 82%
14:00 +13°C° 0.3 mm 3 m/S 763 mmHg 77%
15:00 +14°C° 0.3 mm 3 m/S 762 mmHg 72%
16:00 +13°C° 0.3 mm 2 m/S 762 mmHg 77%
17:00 +12°C° 0.3 mm 2 m/S 762 mmHg 82%
18:00 +11°C° 0.3 mm 1 m/S 761 mmHg 88%
19:00 +9°C° 0 mm 2 m/S 761 mmHg 89%
20:00 +9°C° 0 mm 2 m/S 761 mmHg 89%
21:00 +8°C° 0 mm 2 m/S 761 mmHg 90%
22:00 +8°C° 0 mm 2 m/S 761 mmHg 91%
23:00 +7°C° 0 mm 2 m/S 761 mmHg 91%

Morgen, 4 März, Donnerstag

Zeit Temperatur Niederschläge Wind Luftdruck Luftfeuchtigkeit
00:00 +7°C° 0 mm 3 m/S 760 mmHg 92%
01:00 +7°C° 0 mm 3 m/S 760 mmHg 93%
02:00 +6°C° 0 mm 2 m/S 759 mmHg 94%
03:00 +6°C° 0 mm 2 m/S 759 mmHg 95%
04:00 +6°C° 0 mm 2 m/S 759 mmHg 95%
05:00 +7°C° 0 mm 2 m/S 759 mmHg 96%
06:00 +7°C° 0 mm 2 m/S 758 mmHg 96%
07:00 +8°C° 0 mm 2 m/S 758 mmHg 95%
08:00 +8°C° 0 mm 2 m/S 759 mmHg 94%
09:00 +9°C° 0 mm 2 m/S 759 mmHg 93%
10:00 +9°C° 0.1 mm 3 m/S 759 mmHg 91%
11:00 +9°C° 0.1 mm 3 m/S 759 mmHg 88%
12:00 +8°C° 0.1 mm 4 m/S 759 mmHg 86%
13:00 +8°C° 0 mm 4 m/S 759 mmHg 85%
14:00 +8°C° 0 mm 5 m/S 759 mmHg 84%
15:00 +7°C° 0 mm 5 m/S 758 mmHg 83%
16:00 +6°C° 0 mm 5 m/S 759 mmHg 84%
17:00 +6°C° 0 mm 5 m/S 759 mmHg 86%
18:00 +5°C° 0 mm 5 m/S 759 mmHg 87%
19:00 +4°C° 0 mm 4 m/S 759 mmHg 87%
20:00 +3°C° 0 mm 3 m/S 760 mmHg 88%
21:00 +3°C° 0 mm 3 m/S 760 mmHg 89%
22:00 +3°C° 0 mm 3 m/S 760 mmHg 87%
23:00 +3°C° 0 mm 3 m/S 761 mmHg 84%

übermorgen, 5 März, Freitag

Zeit Temperatur Niederschläge Wind Luftdruck Luftfeuchtigkeit
00:00 +4°C° 0 mm 3 m/S 761 mmHg 82%
01:00 +3°C° 0 mm 3 m/S 761 mmHg 84%
02:00 +2°C° 0 mm 3 m/S 761 mmHg 85%
03:00 +1°C° 0 mm 3 m/S 761 mmHg 87%
04:00 0°C° 0 mm 4 m/S 761 mmHg 83%
05:00 0°C° 0 mm 4 m/S 761 mmHg 79%
06:00 0°C° 0 mm 5 m/S 762 mmHg 75%
07:00 0°C° 0 mm 5 m/S 762 mmHg 73%
08:00 0°C° 0 mm 5 m/S 762 mmHg 71%
09:00 +1°C° 0 mm 6 m/S 762 mmHg 69%
10:00 +2°C° 0 mm 6 m/S 763 mmHg 65%
11:00 +3°C° 0 mm 6 m/S 763 mmHg 62%
12:00 +5°C° 0 mm 5 m/S 763 mmHg 58%
13:00 +4°C° 0 mm 6 m/S 763 mmHg 57%
14:00 +4°C° 0 mm 6 m/S 763 mmHg 56%
15:00 +5°C° 0 mm 6 m/S 763 mmHg 55%
16:00 +3°C° 0 mm 5 m/S 763 mmHg 59%
17:00 +2°C° 0 mm 5 m/S 763 mmHg 63%
18:00 +1°C° 0 mm 4 m/S 764 mmHg 67%
19:00 0°C° 0 mm 4 m/S 764 mmHg 70%
20:00 0°C° 0 mm 4 m/S 765 mmHg 73%
21:00 -1°C° 0 mm 4 m/S 765 mmHg 76%
22:00 -2°C° 0 mm 4 m/S 765 mmHg 77%
23:00 -2°C° 0 mm 4 m/S 765 mmHg 79%

6 März, Samstag

Zeit Temperatur Niederschläge Wind Luftdruck Luftfeuchtigkeit
00:00 -2°C° 0 mm 4 m/S 765 mmHg 80%
01:00 -2°C° 0 mm 4 m/S 765 mmHg 79%
02:00 -3°C° 0 mm 4 m/S 765 mmHg 78%
03:00 -3°C° 0 mm 4 m/S 765 mmHg 76%
04:00 -3°C° 0 mm 4 m/S 765 mmHg 77%
05:00 -2°C° 0 mm 3 m/S 765 mmHg 77%
06:00 -2°C° 0 mm 3 m/S 766 mmHg 77%
07:00 -2°C° 0 mm 4 m/S 766 mmHg 70%
08:00 0°C° 0 mm 4 m/S 766 mmHg 64%
09:00 +1°C° 0 mm 5 m/S 766 mmHg 57%
10:00 +2°C° 0 mm 5 m/S 766 mmHg 53%
11:00 +3°C° 0 mm 5 m/S 766 mmHg 50%
12:00 +5°C° 0 mm 5 m/S 766 mmHg 47%
13:00 +6°C° 0 mm 5 m/S 765 mmHg 47%
14:00 +6°C° 0 mm 4 m/S 765 mmHg 47%
15:00 +6°C° 0 mm 4 m/S 764 mmHg 48%
16:00 +5°C° 0 mm 4 m/S 764 mmHg 54%
17:00 +3°C° 0 mm 3 m/S 764 mmHg 61%
18:00 +2°C° 0 mm 3 m/S 764 mmHg 67%
19:00 +1°C° 0 mm 3 m/S 764 mmHg 69%
20:00 0°C° 0 mm 3 m/S 764 mmHg 71%
21:00 -1°C° 0 mm 3 m/S 764 mmHg 73%
22:00 -1°C° 0 mm 3 m/S 764 mmHg 73%
23:00 -1°C° 0 mm 3 m/S 763 mmHg 74%

7 März, Sonntag

Zeit Temperatur Niederschläge Wind Luftdruck Luftfeuchtigkeit
00:00 -2°C° 0 mm 2 m/S 763 mmHg 75%
01:00 -2°C° 0 mm 2 m/S 763 mmHg 75%
02:00 -2°C° 0 mm 2 m/S 762 mmHg 74%
03:00 -2°C° 0 mm 2 m/S 762 mmHg 74%
04:00 -2°C° 0 mm 2 m/S 761 mmHg 73%
05:00 -2°C° 0 mm 2 m/S 761 mmHg 71%
06:00 -2°C° 0 mm 2 m/S 761 mmHg 70%
07:00 -1°C° 0 mm 2 m/S 761 mmHg 64%
08:00 +2°C° 0 mm 2 m/S 761 mmHg 58%
09:00 +2°C° 0 mm 3 m/S 761 mmHg 52%
10:00 +3°C° 0 mm 3 m/S 760 mmHg 48%
11:00 +5°C° 0 mm 3 m/S 760 mmHg 44%
12:00 +7°C° 0 mm 3 m/S 760 mmHg 40%
13:00 +8°C° 0 mm 3 m/S 759 mmHg 41%
14:00 +8°C° 0 mm 2 m/S 759 mmHg 42%
15:00 +8°C° 0 mm 2 m/S 758 mmHg 43%
16:00 +5°C° 0 mm 3 m/S 758 mmHg 52%
17:00 +3°C° 0 mm 3 m/S 758 mmHg 61%
18:00 +2°C° 0 mm 3 m/S 757 mmHg 69%
19:00 +1°C° 0 mm 3 m/S 757 mmHg 72%
20:00 0°C° 0 mm 3 m/S 758 mmHg 75%
21:00 +1°C° 0 mm 2 m/S 758 mmHg 77%
22:00 +1°C° 0 mm 2 m/S 757 mmHg 77%
23:00 -1°C° 0 mm 2 m/S 757 mmHg 77%

8 März, Montag

Zeit Temperatur Niederschläge Wind Luftdruck Luftfeuchtigkeit
00:00 -1°C° 0 mm 2 m/S 757 mmHg 76%
01:00 -1°C° 0 mm 2 m/S 757 mmHg 77%
02:00 -1°C° 0 mm 2 m/S 756 mmHg 78%
03:00 -2°C° 0 mm 2 m/S 756 mmHg 79%
04:00 -2°C° 0 mm 2 m/S 756 mmHg 79%
05:00 -2°C° 0 mm 2 m/S 756 mmHg 78%
06:00 -1°C° 0 mm 2 m/S 756 mmHg 78%
07:00 +1°C° 0 mm 2 m/S 756 mmHg 73%
08:00 +1°C° 0 mm 3 m/S 756 mmHg 68%
09:00 +2°C° 0 mm 3 m/S 756 mmHg 63%
10:00 +3°C° 0 mm 3 m/S 756 mmHg 60%
11:00 +5°C° 0 mm 3 m/S 756 mmHg 56%
12:00 +6°C° 0 mm 4 m/S 756 mmHg 53%
13:00 +6°C° 0 mm 4 m/S 756 mmHg 54%
14:00 +7°C° 0 mm 3 m/S 756 mmHg 54%
15:00 +7°C° 0 mm 3 m/S 756 mmHg 55%
16:00 +5°C° 0 mm 3 m/S 756 mmHg 62%
17:00 +3°C° 0 mm 3 m/S 756 mmHg 69%
18:00 +2°C° 0 mm 3 m/S 756 mmHg 76%
19:00 +2°C° 0 mm 2 m/S 756 mmHg 78%
20:00 +2°C° 0 mm 2 m/S 756 mmHg 80%
21:00 +1°C° 0 mm 2 m/S 757 mmHg 83%
22:00 +1°C° 0 mm 2 m/S 757 mmHg 83%
23:00 +1°C° 0 mm 2 m/S 756 mmHg 83%
Mehr zeigen

Wir brauchen deine Erlaubnis

Meteoprog und unser Service Anbieter werden persönliche Daten aufbewahren, so wie Cookies, Geräte Bezeichnung oder ähnliche Technologien von deinem Gerät und Prozess, so wie Persönliche Daten Inhalte und Werbungen, genauso wie social Media und den Verkehr zu analysieren.

  • Aufbewahrung und/oder Zugang zu deiner Geräte Informationen.

    Cookies, Geräte Bezeichnung oder andere Informationen, können aufbewahrt oder Zugang zu deinem Gerät erhalten, für den Grund, der oben angegeben wird.

  • Personalisierte Werbung und Inhalte, Messungen, Einblick in das Publikum und Produkt Entwicklung.

    Werbungen und Inhalte können personalisiert werden, basierend auf ein Profil. Mehr Daten können besser personalisierte Werbungen und Inhalte hinzufügen. Werbung und Inhalte können gezeigt und gemessen werden. Einblicke über das Publikum, welche die Werbung gesehen haben und den Inhalt, können abgeleitet werden. So wie Daten können genutzt werden, um es zu verbessern oder die Benutzer Erfahrung zu verbessern das System und die Software.

Wenn du “Ich stimme zu” klickst, erlaubst du uns, die Cookies zu benutzen die Geräte Bezeichnung, den Web oder ähnliche Technologien zu benutzen. Deine Settings, können in deinem Gerät bei deinem Browser geändert werden.

Für den bestimmten Zweck, berechtigten Interessen beruhen darauf, mehr als auf den Inhalt. Du kannst mehr darüber in unseren Privaten und Cookie Politik lesen.